Powrót do katalogu

FENGYUN 1C DEB

AktywnyPO
NORAD 38722·DEBRIS·🇨🇳 China

Wystrzelony May 10, 1999 z Taiyuan Satellite Launch Center

Loading…

Następne Przeloty (najbliższe 24 godziny)

TLE

ŚwieżeSource: Space-Track

Epoka: Sep 14, 2026, 15:37 UTC

1 38722U 99025ETP 26257.65121900  .00006844  00000-0  11093-2 0  9991
2 38722  99.3640  37.5433 0128885 339.5821  20.0253 14.66195159744973

Śledź FENGYUN 1C DEB w czasie rzeczywistym z AllMySat

Download on the App Store